Columbia Airport, CA

3:23 AM PST on December 13, 2019 (GMT -0800)
Columbia Airport

Weather History for KO22 - October, 2019

Change the Weather History Date:

Friday, October 25, 2019

  Actual Average (WUND) Record (WUND)
Temperature  
Mean Temperature 67 °F -  
Max Temperature 86 °F - - (-1)
Min Temperature 48 °F - - (-1)
Cooling Degree Days 2    
Growing Degree Days 17 (Base 50)    
Moisture  
Dew Point 32 °F    
Average Humidity 34    
Maximum Humidity 54    
Minimum Humidity 9    
Precipitation  
Precipitation 0.00 in - - ()
Sea Level Pressure  
Sea Level Pressure 30.13 in    
Wind  
Wind Speed 1 mph (SW)    
Max Wind Speed 8 mph    
Max Gust Speed 13 mph    
Visibility 10 miles    
Events      
Averages and records for this station are not official NWS values.
T = Trace of Precipitation, MM = Missing Value Source: NWS Daily Summary

Daily Weather History Graph

Daily Weather History Graph

Search for Another Location

Airport or City:

Astronomy

Oct. 25, 2019 Rise Set
Actual Time 7:20 AM PDT 6:10 PM PDT
Civil Twilight 6:53 AM PDT 6:37 PM PDT
Nautical Twilight 6:22 AM PDT 7:08 PM PDT
Astronomical Twilight 5:51 AM PDT 7:39 PM PDT
Moon 4:13 AM PDT (10/25) 5:12 PM PDT (10/25)
Length of Visible Light 11h 44m
Length of Day
10h 50m
Waning Crescent, 8% of the Moon is Illuminated
Oct 25
Waning Crescent
Oct 27
New
Nov 4
First Quarter
Nov 12
Full
Nov 19
Last Quarter

Hourly Weather History & Observations

Time (PDT) Temp. Dew Point Humidity Pressure Visibility Wind Dir Wind Speed Gust Speed Precip Events Conditions
12:15 AM 53.6 °F 33.8 °F 47% 30.19 in 10.0 mi Calm Calm - N/A   Clear
12:35 AM 53.6 °F 33.8 °F 47% 30.19 in 10.0 mi Calm Calm - N/A   Clear
12:55 AM 51.8 °F 33.8 °F 50% 30.19 in 10.0 mi Calm Calm - N/A   Clear
1:15 AM 51.8 °F 33.8 °F 50% 30.19 in 10.0 mi Calm Calm - N/A   Clear
1:35 AM 51.8 °F 33.8 °F 50% 30.19 in 10.0 mi Calm Calm - N/A   Clear
1:55 AM 51.8 °F 33.8 °F 50% 30.19 in 10.0 mi Calm Calm - N/A   Clear
2:15 AM 51.8 °F 32.0 °F 47% 30.19 in 10.0 mi Calm Calm - N/A   Clear
2:55 AM 51.8 °F 32.0 °F 47% 30.18 in 10.0 mi Calm Calm - N/A   Clear
3:15 AM 51.8 °F 32.0 °F 47% 30.18 in 10.0 mi Calm Calm - N/A   Clear
3:35 AM 51.8 °F 32.0 °F 47% 30.17 in 9.0 mi Calm Calm - N/A   Clear
4:15 AM 50.0 °F 32.0 °F 50% 30.17 in 8.0 mi Calm Calm - N/A   Clear
4:35 AM 50.0 °F 32.0 °F 50% 30.17 in 10.0 mi Calm Calm - N/A   Clear
4:55 AM 50.0 °F 32.0 °F 50% 30.17 in 10.0 mi Calm Calm - N/A   Clear
5:15 AM 50.0 °F 32.0 °F 50% 30.17 in 4.0 mi Calm Calm - N/A   Haze
5:35 AM 50.0 °F 32.0 °F 50% 30.17 in 6.0 mi Calm Calm - N/A   Haze
5:55 AM 50.0 °F 32.0 °F 50% 30.17 in 9.0 mi Calm Calm - N/A   Clear
6:15 AM 48.2 °F 32.0 °F 54% 30.17 in 6.0 mi Calm Calm - N/A   Haze
6:35 AM 50.0 °F 32.0 °F 50% 30.17 in 10.0 mi Calm Calm - N/A   Clear
6:55 AM 50.0 °F 32.0 °F 50% 30.18 in 10.0 mi Calm Calm - N/A   Clear
7:15 AM 50.0 °F 32.0 °F 50% 30.18 in 10.0 mi Calm Calm - N/A   Clear
7:35 AM 50.0 °F 32.0 °F 50% 30.18 in 10.0 mi Calm Calm - N/A   Clear
7:55 AM 50.0 °F 32.0 °F 50% 30.18 in 10.0 mi Calm Calm - N/A   Clear
8:15 AM 51.8 °F 33.8 °F 50% 30.18 in 10.0 mi Calm Calm - N/A   Clear
8:55 AM 59.0 °F 37.4 °F 45% 30.19 in 10.0 mi Calm Calm - N/A   Clear
9:35 AM 68.0 °F 41.0 °F 37% 30.19 in 10.0 mi Calm Calm - N/A   Clear
9:55 AM 73.4 °F 39.2 °F 29% 30.19 in 10.0 mi Calm Calm - N/A   Clear
10:15 AM 77.0 °F 33.8 °F 21% 30.19 in 10.0 mi Calm Calm - N/A   Clear
10:55 AM 80.6 °F 28.4 °F 15% 30.18 in 10.0 mi Calm Calm - N/A   Clear
11:15 AM 82.4 °F 30.2 °F 15% 30.18 in 10.0 mi Calm Calm - N/A   Clear
11:35 AM 82.4 °F 30.2 °F 15% 30.17 in 10.0 mi Calm Calm - N/A   Clear
11:55 AM 84.2 °F 30.2 °F 14% 30.17 in 10.0 mi Calm Calm - N/A   Clear
12:15 PM 84.2 °F 28.4 °F 13% 30.16 in 10.0 mi SSW 3.5 mph - N/A   Clear
12:35 PM 86.0 °F 28.4 °F 12% 30.16 in 10.0 mi SW 5.8 mph - N/A   Clear
12:55 PM 86.0 °F 24.8 °F 11% 30.15 in 10.0 mi SW 4.6 mph - N/A   Clear
1:15 PM 86.0 °F 21.2 °F 9% 30.14 in 10.0 mi Variable 4.6 mph - N/A   Clear
1:35 PM 86.0 °F 24.8 °F 11% 30.14 in 10.0 mi SW 6.9 mph - N/A   Clear
1:55 PM 86.0 °F 26.6 °F 12% 30.13 in 10.0 mi SSW 6.9 mph - N/A   Clear
2:15 PM 86.0 °F 26.6 °F 12% 30.12 in 10.0 mi SW 6.9 mph - N/A   Clear
2:35 PM 86.0 °F 26.6 °F 12% 30.11 in 10.0 mi SSW 4.6 mph - N/A   Clear
2:55 PM 86.0 °F 26.6 °F 12% 30.11 in 10.0 mi SW 4.6 mph 12.7 mph N/A   Clear
3:15 PM 86.0 °F 28.4 °F 12% 30.10 in 10.0 mi SW 4.6 mph - N/A   Clear
3:35 PM 86.0 °F 28.4 °F 12% 30.10 in 10.0 mi SW 5.8 mph - N/A   Clear
3:55 PM 86.0 °F 28.4 °F 12% 30.10 in 10.0 mi SSW 4.6 mph - N/A   Clear
4:15 PM 84.2 °F 26.6 °F 12% 30.09 in 10.0 mi SW 8.1 mph - N/A   Clear
4:35 PM 84.2 °F 28.4 °F 13% 30.10 in 10.0 mi SW 4.6 mph - N/A   Clear
4:55 PM 82.4 °F 28.4 °F 14% 30.09 in 10.0 mi SSW 4.6 mph - N/A   Clear
5:15 PM 82.4 °F 28.4 °F 14% 30.09 in 10.0 mi SW 4.6 mph - N/A   Clear
5:35 PM 80.6 °F 30.2 °F 16% 30.08 in 10.0 mi Calm Calm - N/A   Clear
5:55 PM 77.0 °F 30.2 °F 18% 30.08 in 10.0 mi Calm Calm - N/A   Clear
6:15 PM 71.6 °F 33.8 °F 25% 30.08 in 10.0 mi Calm Calm - N/A   Clear
6:35 PM 66.2 °F 35.6 °F 32% 30.08 in 10.0 mi Variable 3.5 mph - N/A   Clear
6:55 PM 64.4 °F 35.6 °F 34% 30.08 in 10.0 mi Calm Calm - N/A   Mostly Cloudy
7:15 PM 62.6 °F 37.4 °F 39% 30.08 in 10.0 mi Calm Calm - N/A   Overcast
7:35 PM 60.8 °F 35.6 °F 39% 30.07 in 10.0 mi Calm Calm - N/A   Overcast
7:55 PM 59.0 °F 33.8 °F 39% 30.07 in 10.0 mi Calm Calm - N/A   Overcast
8:15 PM 59.0 °F 33.8 °F 39% 30.07 in 10.0 mi Calm Calm - N/A   Overcast
8:35 PM 57.2 °F 33.8 °F 41% 30.07 in 10.0 mi Calm Calm - N/A   Overcast
8:55 PM 57.2 °F 33.8 °F 41% 30.07 in 10.0 mi Calm Calm - N/A   Overcast
9:55 PM 55.4 °F 33.8 °F 44% 30.07 in 10.0 mi Calm Calm - N/A   Overcast
10:15 PM 53.6 °F 33.8 °F 47% 30.07 in 10.0 mi Calm Calm - N/A   Overcast
10:35 PM 53.6 °F 33.8 °F 47% 30.07 in 10.0 mi Calm Calm - N/A   Overcast
10:55 PM 53.6 °F 33.8 °F 47% 30.06 in 10.0 mi Calm Calm - N/A   Overcast
11:15 PM 53.6 °F 33.8 °F 47% 30.06 in 10.0 mi Calm Calm - N/A   Overcast
11:35 PM 51.8 °F 33.8 °F 50% 30.06 in 10.0 mi Calm Calm - N/A   Overcast
11:55 PM 53.6 °F 33.8 °F 47% 30.06 in 10.0 mi Calm Calm - N/A   Overcast